Temp
62 62 62 62 62 62 62 62 63 63 63 63 63 63 63 63 62 63 66 79 78 80 80 85 84 84 85 80 85 84 62 60 64 66 67 75 71 75 76 72 81 81 80 83 87
62 62 62 62 62 62 62 62 62 62 62 63 62 63 63 63 62 65 79 80 80 79 81 81 77 81 78 78 81 71 62 64 72 71 71 78 76 75 72 74 73 76 84 86 86
62 62 61 61 62 62 62 62 62 62 62 62 62 62 63 63 63 75 81 80 79 79 85 86 85 81 74 79 80 78 68 72 73 77 76 69 71 76 72 75 73 73 79 82 84
61 61 61 61 61 61 61 61 61 61 61 61 62 63 63 63 63 82 79 79 79 83 82 81 81 75 73 73 82 75 81 76 77 82 75 69 71 70 69 68 75 81 82 83 83
60 60 60 60 60 60 61 61 60 60 61 62 62 63 57 60 70 86 80 79 80 80 79 77 75 78 72 77 81 80 82 82 84 83 76 75 72 71 69 73 77 83 84 82 83
60 60 60 60 60 60 60 60 59 60 61 63 65 64 57 60 89 87 84 80 83 80 78 79 79 84 79 79 78 84 87 86 82 80 77 73 71 73 71 71 74 83 81 83 83
59 59 59 59 60 60 60 59 59 60 61 65 65 67 66 69 90 90 88 80 82 82 78 83 86 81 82 77 85 84 78 84 81 79 76 76 67 70 73 75 74 80 82 83 83
59 59 59 59 59 59 58 57 58 60 62 65 66 66 61 87 86 90 89 85 86 84 84 87 88 83 79 83 82 75 73 64 80 81 81 76 62 69 72 70 71 81 82 82 82
59 59 59 59 58 58 56 57 60 62 64 66 60 60 66 84 84 87 88 85 83 83 85 91 86 77 78 69 64 67 58 66 73 81 82 74 64 68 72 70 73 78 82 82 82
58 58 58 58 57 57 56 58 65 62 65 73 74 62 75 80 85 87 88 91 83 82 80 80 75 67 66 60 51 59 61 67 70 78 81 73 66 69 71 68 71 77 81 82 84
58 58 57 57 57 55 54 66 63 59 66 66 68 74 83 85 87 84 88 86 84 77 66 73 62 59 64 68 71 71 70 69 76 81 77 70 64 66 66 66 63 69 79 81 82
58 57 57 57 56 55 53 61 70 71 62 78 79 81 84 83 79 84 88 75 75 66 71 66 60 70 76 75 73 71 68 68 75 82 77 68 66 68 65 67 68 67 79 81 84
57 57 57 56 55 59 68 72 81 77 60 73 80 79 78 77 78 78 79 79 72 68 68 62 69 78 76 73 71 69 64 68 69 78 76 66 60 66 71 73 71 68 75 80 84
57 57 56 55 56 68 71 77 82 79 51 66 71 77 80 77 72 87 85 77 74 68 70 67 76 76 72 71 71 58 75 77 75 67 58 76 51 61 65 65 68 69 68 72 83
57 57 55 53 53 63 76 82 78 71 40 71 72 82 79 69 74 75 85 77 68 70 68 65 71 71 70 73 76 68 77 73 72 64 59 67 59 64 68 60 64 68 67 76 80
57 55 54 61 55 65 75 81 72 50 45 67 74 71 68 71 74 78 77 76 77 70 71 69 79 75 74 79 78 80 73 69 66 59 51 60 59 56 60 64 64 71 74 78 80
55 54 52 65 66 78 81 70 48 45 71 64 64 69 68 67 70 69 69 63 57 49 51 65 69 74 79 69 74 71 56 46 44 47 48 60 57 61 67 71 71 71 74 76 79
53 52 60 70 76 79 73 57 44 62 64 70 70 67 62 68 65 69 64 59 67 63 54 51 52 68 76 68 61 63 59 48 41 43 49 62 51 62 75 77 75 76 76 77 74
53 67 68 75 77 77 61 48 51 60 67 66 65 58 60 65 64 63 58 60 65 63 50 49 54 70 75 75 73 63 55 65 53 57 49 56 63 74 78 75 75 76 73 74 75
54 62 70 82 81 70 56 51 59 66 68 67 56 61 55 59 59 58 57 65 64 67 63 55 45 62 71 73 73 66 67 52 53 42 41 52 56 58 68 74 75 70 71 72 71
58 61 75 83 77 62 52 58 64 70 69 62 58 57 57 56 59 56 59 62 67 65 64 55 48 51 61 57 58 60 55 55 55 51 46 45 53 70 72 72 72 73 75 74 71
63 58 77 80 59 62 58 60 58 66 69 65 63 61 58 58 55 56 57 60 68 64 55 56 46 42 51 64 68 65 58 56 47 47 50 50 55 77 76 80 76 80 81 77 73
57 64 78 78 56 58 63 63 64 62 61 61 60 62 61 55 48 57 60 68 68 62 51 53 44 37 44 52 58 56 61 61 56 52 49 46 53 75 74 73 75 75 72 78 78
59 58 65 68 66 59 56 58 58 66 62 63 60 61 56 52 55 51 56 65 66 63 63 58 44 40 36 44 52 50 56 60 54 45 48 52 57 69 67 68 73 74 75 75 76
60 59 64 53 57 58 58 57 55 52 60 60 56 56 52 44 48 49 54 57 62 61 57 50 39 44 48 53 54 54 55 58 54 52 44 53 58 60 64 68 71 75 75 73 72
57 56 61 57 59 57 54 52 52 53 54 52 50 53 53 46 47 45 49 48 47 55 51 50 39 44 43 53 53 51 55 56 59 59 58 58 58 67 70 70 71 74 74 70 66
65 68 61 54 55 52 51 52 53 53 57 58 54 50 49 51 55 54 54 54 53 48 47 43 39 37 33 47 48 40 51 54 57 59 57 51 58 64 59 67 69 65 66 65 65
MSLP
1017.58 1017.12 1016.67 1016.15 1015.62 1015.11 1014.69 1014.32 1014.05 1013.67 1013.32 1012.97 1012.85 1012.75 1012.53 1012.27 1012.00 1011.68 1010.13 1007.94 1007.91 1007.93 1008.23 1008.19 1008.42 1008.33 1008.19 1008.00 1007.64 1008.01 1008.86 1008.88 1008.54 1008.23 1008.06 1008.20 1008.45 1008.83 1009.29 1009.27 1008.95 1008.90 1009.03 1009.39 1009.78
1017.55 1017.06 1016.60 1016.09 1015.50 1014.93 1014.44 1014.00 1013.67 1013.40 1013.05 1012.79 1012.53 1012.49 1012.23 1012.11 1011.61 1009.95 1007.41 1007.24 1007.32 1007.74 1008.11 1007.87 1007.97 1007.95 1007.82 1007.17 1007.13 1007.26 1008.05 1008.17 1007.80 1007.82 1007.72 1007.43 1007.58 1008.14 1008.87 1009.14 1008.99 1009.25 1009.57 1009.81 1010.02
1017.53 1017.02 1016.51 1016.00 1015.41 1014.82 1014.29 1013.75 1013.32 1013.04 1012.84 1012.47 1012.26 1012.20 1012.07 1012.01 1010.83 1007.15 1005.89 1006.89 1007.14 1007.51 1007.62 1007.30 1007.42 1007.50 1007.42 1006.79 1006.21 1006.06 1006.58 1007.08 1006.53 1006.89 1007.36 1008.77 1008.94 1008.11 1008.81 1008.42 1008.28 1008.66 1009.39 1009.89 1010.24
1017.47 1016.95 1016.40 1015.80 1015.25 1014.64 1014.11 1013.58 1013.09 1012.73 1012.45 1012.15 1012.01 1011.93 1011.89 1011.69 1009.01 1006.08 1006.04 1006.45 1006.86 1007.22 1007.70 1007.30 1007.00 1006.98 1006.69 1006.21 1005.36 1005.29 1005.24 1005.96 1005.48 1005.62 1006.73 1008.10 1008.71 1008.47 1009.01 1009.91 1010.29 1008.12 1008.60 1009.50 1010.07
1017.37 1016.82 1016.26 1015.68 1015.10 1014.50 1013.87 1013.36 1012.91 1012.48 1012.17 1011.83 1011.76 1011.74 1011.93 1010.42 1007.01 1005.35 1005.79 1006.28 1006.80 1007.12 1007.23 1007.21 1006.67 1006.13 1005.94 1005.38 1004.83 1004.40 1003.97 1004.38 1004.80 1005.04 1006.79 1006.96 1007.93 1008.87 1009.02 1009.55 1009.91 1009.14 1009.29 1009.51 1010.01
1017.35 1016.75 1016.04 1015.37 1014.77 1014.23 1013.64 1013.12 1012.67 1012.25 1011.96 1011.63 1011.39 1011.65 1011.35 1008.41 1004.58 1004.87 1005.57 1006.25 1006.12 1006.63 1006.77 1006.69 1005.75 1005.13 1005.10 1004.75 1004.44 1003.53 1003.14 1003.15 1003.92 1005.15 1006.21 1007.35 1008.49 1009.06 1009.52 1010.11 1009.95 1009.26 1009.53 1009.66 1009.98
1017.17 1016.56 1015.94 1015.21 1014.47 1013.91 1013.38 1012.87 1012.37 1011.99 1011.76 1011.43 1011.39 1011.27 1009.83 1006.69 1004.28 1004.23 1004.68 1005.39 1005.70 1005.93 1006.19 1005.81 1005.26 1005.24 1004.62 1004.43 1003.75 1003.40 1003.31 1002.77 1003.58 1004.33 1005.69 1007.44 1009.25 1009.41 1009.34 1010.27 1010.71 1009.93 1009.98 1009.89 1010.04
1017.11 1016.45 1015.65 1014.94 1014.22 1013.53 1013.01 1012.36 1011.91 1011.57 1011.47 1011.35 1011.39 1010.85 1008.20 1004.66 1004.07 1004.03 1004.15 1004.77 1005.31 1005.53 1005.77 1005.03 1004.72 1004.84 1004.46 1004.33 1003.93 1003.82 1003.51 1003.31 1002.90 1003.51 1004.79 1006.25 1008.62 1009.53 1009.58 1010.18 1010.66 1010.07 1010.07 1010.19 1010.20
1016.95 1016.28 1015.53 1014.64 1013.88 1013.21 1012.49 1011.59 1010.97 1010.86 1011.01 1011.17 1011.21 1010.21 1006.55 1004.23 1004.16 1003.85 1003.59 1004.17 1004.93 1005.40 1005.49 1005.22 1004.86 1004.71 1004.73 1004.95 1004.95 1004.31 1004.01 1003.47 1002.85 1003.03 1003.61 1005.54 1007.78 1009.50 1010.26 1010.34 1010.08 1009.57 1009.83 1009.90 1010.08
1016.73 1016.08 1015.29 1014.39 1013.48 1012.97 1012.04 1010.41 1010.05 1010.32 1010.57 1010.41 1009.75 1009.09 1005.83 1003.98 1003.49 1003.54 1003.52 1003.67 1004.42 1005.15 1005.47 1005.25 1004.97 1004.81 1005.13 1005.37 1005.40 1004.78 1003.96 1003.09 1002.39 1002.25 1003.07 1004.67 1007.11 1008.97 1010.04 1008.47 1010.46 1009.59 1009.47 1009.48 1009.45
1016.49 1015.81 1015.10 1014.15 1012.99 1012.86 1011.95 1010.11 1010.09 1010.05 1009.20 1007.57 1006.69 1005.33 1003.76 1003.47 1003.42 1003.62 1003.54 1003.58 1003.93 1004.83 1005.24 1004.92 1005.17 1004.89 1005.16 1005.23 1004.97 1004.39 1003.81 1003.10 1001.67 1001.09 1002.27 1004.45 1007.09 1008.70 1010.07 1009.97 1010.61 1010.77 1008.97 1009.12 1009.11
1016.11 1015.38 1014.81 1013.83 1012.65 1011.76 1012.06 1010.48 1008.31 1007.89 1007.22 1005.89 1005.07 1004.24 1003.57 1003.23 1003.15 1003.07 1003.38 1003.96 1003.96 1004.59 1005.00 1005.17 1004.89 1004.72 1004.77 1004.57 1004.27 1003.86 1003.31 1002.50 1001.31 1000.63 1001.86 1004.33 1006.71 1008.44 1009.18 1009.18 1009.85 1010.23 1008.73 1008.16 1008.82
1015.96 1015.09 1014.37 1013.50 1012.20 1010.87 1010.14 1008.52 1007.28 1007.01 1006.75 1004.60 1003.86 1003.56 1003.32 1003.46 1002.84 1002.87 1003.47 1003.65 1004.11 1004.56 1004.64 1004.74 1004.11 1003.88 1003.94 1003.74 1003.49 1003.05 1002.91 1002.19 1001.71 1001.43 1001.67 1004.18 1006.95 1007.86 1008.51 1008.55 1008.97 1009.26 1008.87 1009.13 1007.90
1015.70 1014.98 1014.30 1013.29 1011.95 1010.69 1008.76 1007.05 1006.71 1006.57 1006.59 1003.85 1003.23 1002.83 1003.04 1003.29 1003.08 1002.89 1003.29 1003.77 1003.73 1004.11 1004.30 1004.17 1003.69 1003.47 1003.43 1003.19 1002.93 1002.63 1002.20 1001.99 1001.77 1002.23 1003.13 1003.14 1005.72 1006.87 1007.19 1008.58 1008.37 1008.35 1009.06 1008.90 1007.74
1015.42 1014.75 1014.09 1014.38 1013.13 1010.90 1008.02 1007.01 1006.79 1006.80 1005.82 1003.27 1003.04 1002.99 1002.77 1003.44 1003.31 1003.49 1003.66 1003.94 1004.04 1003.99 1003.99 1003.66 1003.17 1002.78 1002.53 1002.34 1002.30 1002.45 1002.24 1002.39 1002.37 1002.79 1003.15 1003.18 1004.83 1004.92 1006.35 1007.96 1008.17 1007.32 1008.75 1008.37 1008.06
1014.94 1014.54 1014.08 1012.21 1012.93 1009.77 1008.15 1007.27 1006.93 1007.11 1004.53 1003.04 1003.09 1003.18 1003.34 1003.48 1003.32 1003.79 1004.02 1004.31 1004.16 1004.23 1003.97 1003.51 1002.59 1002.41 1002.04 1001.70 1001.77 1002.22 1002.66 1002.99 1003.38 1003.82 1003.77 1003.67 1004.53 1004.81 1005.85 1005.11 1006.56 1006.34 1006.29 1006.09 1007.00
1014.31 1013.72 1014.05 1012.48 1010.47 1008.43 1007.75 1007.63 1007.50 1005.97 1002.98 1003.39 1003.41 1003.34 1003.38 1003.50 1003.56 1003.87 1004.17 1004.52 1004.69 1004.91 1004.74 1004.17 1003.22 1002.47 1002.08 1001.92 1001.81 1002.46 1003.49 1004.57 1005.03 1005.13 1004.67 1003.98 1003.73 1003.35 1003.32 1004.05 1003.99 1004.29 1003.55 1005.22 1005.77
1013.65 1012.87 1011.69 1010.86 1009.45 1008.81 1008.27 1008.43 1007.51 1005.53 1003.96 1003.26 1003.43 1003.47 1003.49 1003.57 1003.95 1004.29 1004.63 1004.87 1004.84 1005.15 1005.41 1005.40 1004.24 1003.03 1002.40 1002.38 1002.59 1002.87 1003.87 1005.10 1005.65 1005.61 1005.39 1004.38 1003.33 1001.90 1001.56 1002.21 1002.95 1003.67 1004.29 1005.52 1005.85
1013.43 1011.53 1010.84 1009.27 1009.11 1008.84 1009.01 1008.37 1007.35 1006.03 1005.46 1004.56 1004.35 1004.26 1004.27 1004.33 1004.61 1004.96 1005.41 1005.66 1005.85 1006.17 1006.69 1006.69 1005.35 1004.29 1003.43 1002.99 1003.00 1003.26 1003.72 1004.25 1005.43 1005.59 1005.75 1004.61 1002.69 1001.11 1000.41 1001.43 1002.57 1003.59 1004.60 1005.23 1005.62
1013.88 1011.77 1009.42 1008.00 1008.13 1008.57 1009.10 1008.17 1007.48 1007.55 1006.66 1005.71 1005.44 1005.23 1005.46 1005.38 1005.63 1005.79 1006.03 1006.28 1006.84 1007.31 1007.64 1008.36 1007.99 1006.22 1004.89 1004.07 1002.61 1003.07 1003.89 1004.82 1005.37 1006.22 1006.29 1004.99 1003.34 1001.95 1000.80 1000.18 1001.71 1003.28 1003.62 1004.21 1005.15
1013.27 1011.22 1008.45 1007.81 1007.94 1008.75 1008.76 1008.80 1008.01 1007.83 1007.57 1007.34 1007.23 1007.06 1007.34 1007.57 1007.23 1006.86 1007.15 1008.03 1008.06 1008.43 1008.62 1009.35 1009.81 1008.23 1007.44 1005.97 1005.47 1004.83 1004.75 1005.35 1006.00 1006.58 1006.44 1005.67 1003.54 1001.32 1001.55 1000.61 1002.47 1001.75 1001.72 1002.42 1003.87
1012.83 1010.51 1008.41 1007.73 1008.51 1008.58 1008.86 1009.01 1008.75 1008.44 1008.24 1008.29 1008.25 1008.39 1008.65 1008.91 1008.88 1008.58 1008.49 1008.85 1009.25 1009.68 1010.32 1010.79 1011.23 1010.96 1009.42 1007.67 1007.07 1006.46 1006.32 1006.23 1006.93 1007.07 1006.52 1005.54 1003.75 1001.07 1001.90 1001.52 1002.41 1001.69 1001.66 1002.11 1003.39
1013.66 1010.45 1008.51 1007.77 1008.95 1009.41 1009.28 1009.90 1010.26 1009.95 1009.97 1009.97 1009.82 1010.18 1010.31 1010.38 1010.49 1010.07 1009.78 1009.80 1010.12 1010.68 1011.87 1012.15 1012.50 1012.36 1010.85 1009.03 1008.20 1008.08 1007.25 1007.01 1006.62 1006.88 1006.99 1006.43 1004.16 1002.09 1002.14 1002.37 1002.85 1003.12 1002.84 1003.23 1003.17
1014.13 1011.37 1010.23 1010.13 1010.47 1010.94 1010.99 1010.97 1011.16 1011.31 1011.51 1011.56 1011.56 1011.50 1011.87 1011.98 1011.75 1011.65 1011.32 1011.07 1011.58 1012.19 1012.84 1013.08 1013.70 1014.09 1013.66 1012.42 1012.18 1010.71 1009.44 1008.43 1007.93 1007.55 1007.26 1006.34 1004.89 1003.37 1003.83 1003.51 1002.95 1003.91 1004.04 1003.87 1004.60
1014.09 1012.70 1011.94 1012.25 1012.14 1012.37 1012.61 1012.79 1012.77 1013.29 1013.19 1012.94 1013.02 1013.50 1013.95 1013.97 1013.56 1013.36 1013.09 1012.58 1012.43 1013.07 1013.65 1014.18 1014.73 1014.86 1014.42 1013.76 1013.05 1011.80 1010.65 1009.41 1008.76 1008.17 1007.98 1007.19 1006.27 1005.96 1005.04 1004.52 1004.10 1004.13 1004.97 1005.49 1005.58
1014.34 1013.83 1013.31 1013.27 1013.19 1013.39 1013.92 1014.46 1014.62 1014.91 1014.71 1014.69 1015.01 1015.18 1015.15 1015.35 1015.51 1015.14 1014.99 1014.71 1014.26 1014.13 1014.42 1015.02 1015.65 1015.62 1015.17 1014.56 1013.75 1012.41 1011.37 1010.32 1009.18 1008.46 1008.03 1007.83 1006.98 1006.79 1006.05 1005.23 1004.83 1005.05 1005.79 1006.74 1006.90
1014.80 1013.89 1013.73 1014.31 1014.63 1014.93 1015.65 1015.85 1015.90 1016.25 1015.81 1015.77 1016.03 1016.07 1015.96 1016.33 1016.31 1016.04 1015.90 1015.59 1015.31 1015.29 1015.45 1016.02 1016.67 1017.01 1016.33 1015.80 1014.87 1013.42 1011.82 1010.95 1009.93 1008.98 1008.93 1008.66 1008.51 1008.35 1008.09 1007.17 1007.03 1007.11 1007.27 1007.83 1008.21
Wind_Speed
20 20 20 21 21 21 20 18 16 15 14 14 12 11 10 9 10 5 7 7 8 12 2 8 10 13 15 13 16 9 2 4 3 3 3 8 6 3 7 7 14 4 16 23 16
21 21 21 21 21 22 21 20 18 16 15 14 13 10 9 7 5 11 11 9 10 10 6 12 13 14 13 13 10 5 3 4 4 2 4 15 15 14 6 11 7 14 21 19 17
22 22 22 21 22 22 22 21 20 18 16 14 12 9 6 5 5 6 16 12 13 10 8 12 12 14 13 15 12 9 8 7 11 15 4 8 4 3 4 8 15 25 24 22 18
22 22 23 23 23 23 22 21 20 19 17 14 9 6 4 5 2 4 14 13 10 7 8 11 12 15 12 13 15 16 16 11 8 13 11 17 5 5 2 6 15 24 27 24 18
23 23 23 23 23 23 23 21 20 19 16 10 7 4 2 4 9 10 13 10 9 7 13 13 11 16 14 11 15 18 20 13 8 7 8 15 11 6 10 1 10 17 22 21 15
22 22 22 23 24 23 22 20 20 18 14 9 6 5 3 5 3 15 14 10 10 12 12 14 10 12 10 15 14 15 14 12 13 11 16 11 7 9 3 4 6 17 22 17 14
23 22 22 23 25 24 23 21 19 17 12 6 3 5 6 13 3 4 11 9 9 11 11 16 18 15 8 11 12 10 11 12 16 16 8 8 8 3 10 10 17 17 19 16 16
23 24 24 24 25 25 22 21 19 15 10 4 4 6 8 8 2 5 9 10 9 10 13 16 16 15 7 8 14 10 7 4 7 15 15 15 12 13 15 15 12 17 21 19 18
24 24 25 25 24 24 23 25 20 12 7 4 5 5 7 3 5 11 3 11 11 9 13 17 17 7 8 5 7 7 5 8 15 19 12 13 12 18 17 13 15 19 21 21 20
23 24 25 26 26 23 25 25 5 6 7 8 9 5 7 6 4 2 6 6 13 12 14 16 9 5 5 2 6 10 6 9 12 11 16 16 16 19 20 10 7 19 18 22 20
24 24 25 26 28 22 14 6 1 2 5 9 5 7 8 6 2 7 7 7 9 8 9 8 3 8 8 10 13 16 15 13 13 10 16 14 25 22 18 15 13 20 20 17 14
24 25 25 26 28 27 5 4 5 5 8 14 18 8 3 4 5 6 9 6 7 6 8 6 12 9 12 15 16 18 14 14 14 11 12 16 17 22 18 16 16 9 22 24 21
24 25 25 27 31 12 6 10 4 8 4 9 13 8 7 4 7 9 4 10 9 9 9 11 12 18 16 15 15 13 9 11 11 10 7 17 4 12 9 13 16 10 3 11 25
24 24 24 27 7 8 6 1 6 3 3 6 9 3 5 3 4 9 1 4 5 9 12 9 16 16 16 15 12 7 10 12 11 7 2 7 5 9 10 8 10 8 11 12 23
24 24 23 11 9 6 8 7 4 2 3 11 7 2 6 5 6 4 4 4 8 8 6 9 13 13 14 11 14 9 10 8 9 7 5 11 2 7 12 6 10 19 23 17 14
25 22 21 2 5 11 13 11 3 1 5 6 6 7 4 5 4 7 5 4 5 6 9 9 8 9 12 13 9 6 8 9 7 5 6 8 5 1 10 13 10 21 25 16 16
26 26 14 7 5 10 9 5 2 4 9 6 7 8 10 7 5 3 6 6 4 2 4 7 11 9 9 6 7 6 1 4 5 5 7 7 5 9 13 17 20 23 21 16 9
29 27 7 8 9 11 5 4 4 11 9 6 8 3 3 9 3 6 4 5 8 8 2 3 8 8 5 5 3 7 8 7 7 6 5 8 5 8 16 24 25 16 14 8 3
28 3 3 7 12 6 2 3 6 10 13 10 4 2 4 5 5 4 2 6 7 13 5 6 7 18 13 7 11 8 5 9 6 9 4 6 8 13 11 19 24 22 14 10 8
5 4 6 4 4 2 2 5 10 10 11 10 8 9 7 4 5 7 5 9 7 9 8 7 7 7 16 16 7 10 4 3 3 7 7 6 9 7 7 13 25 22 16 13 8
3 3 2 5 2 2 2 3 9 12 11 9 9 9 10 10 12 6 6 14 14 10 8 6 3 12 11 4 8 8 4 4 1 2 6 6 8 9 10 6 15 23 22 26 21
5 1 4 4 1 3 6 3 5 11 12 6 3 5 7 9 9 8 8 6 6 9 6 6 1 5 14 19 18 13 9 4 5 9 3 5 9 12 10 14 22 18 25 27 27
6 3 5 6 4 5 6 14 13 11 13 12 12 13 11 8 5 7 7 13 13 7 4 6 4 5 11 8 5 7 13 13 3 1 8 4 8 3 14 17 14 21 10 19 26
4 3 5 6 8 13 9 10 8 16 13 7 6 7 8 8 7 4 7 4 11 10 5 3 1 2 5 11 10 15 21 18 9 2 5 6 7 15 13 13 17 14 17 10 6
3 3 5 5 7 9 10 10 14 11 10 15 12 15 10 6 9 8 12 9 7 6 4 1 4 6 10 14 16 20 20 20 14 8 3 9 15 6 8 8 9 9 13 14 18
4 4 5 4 8 13 9 9 13 8 10 11 9 10 8 8 8 9 8 8 4 8 4 4 3 6 11 12 15 18 19 21 17 14 12 11 15 10 13 11 11 18 13 14 16
4 5 3 5 11 8 9 7 10 8 8 11 9 7 6 11 11 11 11 12 11 6 5 5 2 4 5 9 12 12 12 16 17 12 9 10 10 16 18 17 17 17 15 13 9
Wind_Direction
351 350 348 344 341 338 336 333 330 325 319 314 312 312 308 302 295 222 236 225 192 203 96 189 198 231 201 235 234 197 38 320 312 292 176 159 133 152 106 179 180 178 153 158 174
348 347 346 342 339 336 334 330 327 325 320 313 312 314 309 314 269 256 242 155 144 153 188 201 194 218 220 220 230 132 192 223 248 280 218 173 151 156 167 205 256 125 144 165 175
346 344 342 340 337 334 332 328 324 323 321 313 307 311 303 291 271 231 187 180 159 166 227 224 199 213 226 238 236 220 222 196 257 233 199 28 95 82 348 236 161 143 155 173 179
343 341 339 337 335 333 331 327 323 321 322 312 302 303 300 248 19 153 167 174 174 183 212 249 234 212 227 230 237 240 221 181 271 221 152 154 168 55 76 351 327 151 162 171 180
340 338 335 332 332 331 329 326 321 320 321 313 296 281 267 222 252 159 175 174 163 173 206 225 249 216 219 232 244 243 237 182 198 86 127 136 135 146 264 102 290 161 164 174 176
336 335 332 329 329 330 328 324 319 316 318 305 276 162 246 257 103 153 164 162 185 181 211 231 245 222 232 242 253 263 268 208 163 141 151 127 162 170 200 174 277 167 163 176 176
333 333 332 328 327 328 327 320 314 310 307 306 177 224 268 249 328 192 172 164 208 186 211 235 249 270 244 275 270 285 298 305 168 161 127 140 141 189 165 162 229 182 168 173 186
331 332 331 328 326 325 324 315 306 298 289 265 208 251 252 210 325 237 195 156 192 186 223 243 245 259 268 299 295 288 288 278 257 162 157 179 163 153 168 169 215 174 168 178 194
329 331 329 327 325 326 322 308 298 272 241 208 223 228 268 143 205 231 242 168 187 180 230 252 265 248 289 286 308 289 239 236 257 178 149 159 133 168 188 193 205 171 173 183 196
329 329 329 325 323 327 322 296 242 309 207 216 259 281 260 242 95 211 242 234 168 188 224 237 257 194 263 221 230 249 247 239 244 190 184 199 134 158 171 200 296 177 189 184 196
328 328 328 324 320 326 340 340 140 190 250 221 199 232 146 103 138 204 194 251 190 183 210 225 230 221 231 242 255 270 279 280 281 220 186 153 148 161 155 133 254 249 180 184 192
328 327 327 324 318 316 268 239 38 278 298 275 250 248 343 342 214 183 141 221 203 190 216 232 230 228 238 239 238 252 264 281 289 280 162 137 154 160 173 177 189 256 185 177 186
325 326 327 323 316 300 227 273 299 287 258 276 216 227 178 209 259 153 185 223 187 216 212 225 222 221 238 251 253 251 234 267 269 331 78 103 50 176 198 146 149 212 122 235 179
322 324 325 331 313 336 273 43 316 45 292 236 174 216 111 240 269 94 353 345 248 225 222 238 241 256 223 237 257 268 271 280 279 322 225 188 206 213 198 136 150 110 329 303 183
320 321 321 315 302 295 318 326 9 17 286 131 133 82 193 194 129 147 84 301 267 266 246 238 237 251 252 227 223 257 287 293 313 290 298 293 293 228 152 138 173 142 238 248 246
317 319 332 72 202 253 294 303 337 275 228 133 126 180 182 244 243 147 182 238 304 298 305 290 291 250 249 258 261 272 278 300 323 340 296 265 155 342 182 183 172 177 207 221 249
315 314 314 278 254 311 316 326 286 242 130 151 153 153 200 171 186 167 195 189 221 157 262 280 272 289 298 315 260 235 286 337 334 294 254 306 310 237 213 180 180 196 191 197 207
317 312 222 233 269 293 326 315 268 14 45 86 97 74 221 136 139 151 352 319 220 262 318 280 313 215 245 263 271 249 175 167 212 240 257 241 256 263 191 190 195 199 192 187 177
313 275 229 241 235 265 320 274 27 19 358 360 122 252 204 94 68 79 218 268 15 45 68 21 288 345 328 335 232 267 271 208 252 282 324 275 288 269 263 170 183 194 182 165 132
312 284 249 306 131 273 298 292 80 43 344 346 360 25 16 15 145 164 208 29 71 63 54 13 319 343 339 334 304 173 253 337 261 250 269 280 292 261 290 235 183 175 185 145 146
242 277 360 305 178 277 249 57 52 60 24 21 7 4 7 15 2 4 62 37 27 35 92 27 95 305 341 325 338 332 306 300 207 206 228 252 268 242 267 66 190 199 176 166 151
333 310 317 308 326 319 50 23 359 29 22 22 15 14 16 14 359 353 26 76 67 33 18 35 307 307 289 300 309 312 303 271 158 282 240 202 271 293 325 357 38 238 188 178 169
319 281 13 354 14 352 72 84 48 16 37 16 15 16 13 7 10 2 11 42 46 52 47 6 347 351 325 324 360 343 330 328 236 315 268 267 279 15 22 15 24 28 337 187 179
301 5 7 23 7 37 354 17 78 38 46 23 20 20 19 357 351 347 355 11 61 68 62 52 276 210 248 290 330 307 316 315 316 176 273 264 303 300 20 12 351 46 38 20 273
232 70 46 21 356 71 40 16 48 23 3 26 44 33 25 355 335 19 5 350 16 113 7 17 261 284 285 288 297 290 296 298 301 303 295 298 302 7 27 10 340 30 55 47 19
40 9 343 7 351 64 31 39 42 18 24 31 25 7 354 15 4 340 348 337 310 344 340 27 298 313 299 289 285 287 292 300 287 291 295 301 300 18 356 355 16 8 33 48 43
326 318 46 9 23 59 41 43 44 24 8 32 34 8 360 9 339 319 311 303 293 291 267 131 26 2 279 304 312 304 280 276 294 290 295 292 309 4 6 351 20 22 23 39 41